Regional Weather Roundup
Issued by NWS

Home | Current Version | Previous Version | Text Only | Print | Product List | Glossary Off
Versions: 1 2 3 4 5 6 7 8 9 10 11 12 13 14 15 16 17 18 19 20 21 22 23 24 25 26 27 28 29 30 31 32 33 34 35 36 37 38 39 40 41 42 43 44 45 46 47 48 49 50

000
ASUS45 KBOU 020110
RWRCO

WEATHER ROUNDUP FOR COLORADO
NATIONAL WEATHER SERVICE DENVER/BOULDER CO
700 PM MDT WED JUL 01 2015

NOTE: "FAIR" INDICATES FEW OR NO CLOUDS BELOW 12000 FEET WITH NO
SIGNIFICANT WEATHER AND/OR OBSTRUCTIONS TO VISIBILITY.

COZ001>005-013-030-031-020200-
...NORTHWEST COLORADO...

CITY           SKY/WX    TMP DP  RH WIND       PRES   REMARKS
CRAIG          PTSUNNY   84  49  29 W6        30.13F
HAYDEN         PTSUNNY   81  46  30 E12       30.18R
MEEKER         PTSUNNY   84  49  29 SE5       30.14F
MOUNT WERNER   NOT AVBL
STEAMBOAT SPGS PTSUNNY   77  52  42 CALM      30.21R
WALDEN         CLOUDY    66  46  48 CALM      30.33R
$$

COZ006>008-011-020200-
...WEST CENTRAL VALLEYS...

CITY           SKY/WX    TMP DP  RH WIND       PRES   REMARKS
GRAND JUNCTION PTSUNNY   88  52  29 W10       29.97S
MONTROSE       MOSUNNY   93  45  19 NW6       30.06F
EAGLE          PTSUNNY   82  45  26 E9        30.18S
RIFLE          PTSUNNY   91  48  22 NW5       30.03F
DELTA          MOSUNNY   98  40  14 N3        30.00S
NUCLA          MOSUNNY   91  43  18 E7        30.10S
$$

COZ017>023-064>068-020200-
...SOUTHWEST COLORADO...

CITY           SKY/WX    TMP DP  RH WIND       PRES   REMARKS
DURANGO        CLOUDY    80  51  36 SE5       30.15R
CORTEZ         SUNNY     91  46  21 E6        30.04F
PAGOSA SPRINGS CLOUDY    68  49  50 CALM      30.26S
TELLURIDE      CLOUDY    76  42  29 CALM      30.38S
WOLF CREEK PAS NOT AVBL
$$

COZ009-010-012-014-032>034-037-058>063-020200-
...CENTRAL COLORADO...

CITY           SKY/WX    TMP DP  RH WIND       PRES   REMARKS
ASPEN          PTSUNNY   77  45  32 NW6       30.25F
BUENA VISTA    PTSUNNY   67  52  58 N7        30.35S
COPPER MTN     CLOUDY    61  41  48 W8        30.65F
BERTHOUD PASS  FAIR      48  37  66 MISG      30.71S THUNDER
COTTONWOOD PAS NOT AVBL
GUNNISON       CLOUDY    81  45  28 NE10      30.26F
KREMMLING      MOSUNNY   77  39  25 CALM      30.26S
LEADVILLE      LGT RAIN  59  47  64 N10       30.47R
MONARCH PASS   CLOUDY    54  46  76 E23       30.73F
SALIDA         PTSUNNY   74  50  42 SE12G20   30.37S
SUNLIGHT       PTSUNNY   64  45  48 CALM      30.55F
WILKERSON PASS CLOUDY    52  45  76 S3        30.63F
$$

COZ069>075-020200-
...SAN LUIS VALLEY/SANGRE DE CRISTO MOUNTAINS...

CITY           SKY/WX    TMP DP  RH WIND       PRES   REMARKS
ALAMOSA        CLOUDY    67  50  54 N10       30.33R
LA VETA PASS   TSTM      52  50  93 MISG      30.56R
SAGUACHE       RAIN      63  57  82 E12       30.33F
$$

COZ035-036-038>040-020200-
...NORTHERN COLORADO FRONT RANGE...

CITY           SKY/WX    TMP DP  RH WIND       PRES   REMARKS
DENVER INTL AP CLOUDY    71  60  68 SE10      30.17F
DMNS CITY PARK   N/A     76  56  50 S8G21     30.15S
AURORA         PTSUNNY   71  59  67 SE13      30.21S
FRONT RANGE AP PTSUNNY   70  63  78 SE8       30.20R
ERIE MUNI ARPT PTSUNNY   78  54  43 SE12      30.15R
BOULDER MUN AP PTSUNNY   77  54  44 CALM      30.16R
CENTENNIAL     PTSUNNY   72  56  57 SE10      30.22R
BROOMFIELD     PTSUNNY   77  54  44 E10       30.19S
FORT COLLINS   MOSUNNY   75  57  53 S8        30.14R
LONGMONT       MOSUNNY   79  56  45 E7        30.16R
$$

COZ041-046-047-076>085-087-088-020200-
...PIKES PEAK/PALMER DIVIDE AND SOUTHERN FOOTHILLS...

CITY           SKY/WX    TMP DP  RH WIND       PRES   REMARKS
COLO. SPRINGS  LGT RAIN  65  61  87 VRB5      30.25F
A. F. ACADEMY  CLOUDY    63  61  94 CALM      30.26F
ELLICOTT       LGT RAIN N/A N/A N/A E9        30.23F
FALCON         CLOUDY    63  56  78 CALM      30.29F
FORT CARSON    LGT RAIN  62  60  92 N8        30.21F
LIMON          RAIN      61  59  93 NW8       30.24R FOG
MONUMENT HILL  CLOUDY    61  55  82 E12       30.31S
TRINIDAD       CLOUDY    84  49  29 E5        30.11F
$$

COZ042>045-048>051-090-091-020200-
...NORTHEAST COLORADO...

CITY           SKY/WX    TMP DP  RH WIND       PRES   REMARKS
GREELEY ARPT   MOSUNNY   73  61  64 S6        30.12R
AKRON          CLOUDY    71  59  65 SW16G31   30.10R THUNDER
BURLINGTON     PTSUNNY   88  49  25 E9        30.02R
WRAY           MOSUNNY   86  50  28 NE9G16    29.99R
STERLING       CLOUDY    81  57  44 W17         N/A
HOLYOKE        MOSUNNY   84  59  42 E7        29.99R
FORT MORGAN    DRIZZLE   70  59  67 S8        30.10S
$$

COZ086-089-092>099-020200-
...SOUTHEAST COLORADO...

CITY           SKY/WX    TMP DP  RH WIND       PRES   REMARKS
PUEBLO         CLOUDY    71  62  73 N16G28    30.14R
LA JUNTA       CLOUDY    89  54  30 E6        29.99S
LAMAR          CLOUDY    90  54  29 E7        29.94S
SPRINGFIELD      N/A     89  50  26 E9        30.00R
$$


USA.gov is the U.S. government's official web portal to all federal, state and local government web resources and services.